Погода в Шаки

Погода в Шаки : погода сейчас, прогноз погоды и архив. Всё, что Вы хотите узнать о погоде в Шаки!

Поиск расширенной информации на нашем сайте:

Другие новости

Новости СМИ2

Главная страница сайта

Новости сайта

03.07.2017

Напоминаем, что на нашем специализированном сайте Метеоцентр.Азия вы можете получить высокодетализированные автоматические прогнозы погоды по пунктам России, СНГ и мира в авиационном формате (включающие направление и скорость ветра, видимость, явления погоды, количество и форму облачности, нижнюю и верхнюю границу облачности).

Рекомендуем: удобные сауны города екатеринбурга

Погода в Шаки - сегодня

Время (UTC), дата Ветер
(°,м/с) 
Видим.   Явления Облачность Т
(°С)
Тd
(°С)
f(%) Тe
(°С)
Pmin
(гПа)
dP
(гПа)
Po
(мм)
O2
(г/м3)
Тmin Tmax R s Состояние
почвы
00 19.08.17 020 (С) 20000 м    ясно 
+22.7 +14.8 61 +33  1013.5  -0.5  707  260           
03 19.08.17 020 (С) 20000 м    5/0 средняя 
[Ac und]
+21.1 +14.9 68 +31  1015.2  1.2  708  261           
06 19.08.17 330 (СЗ) 20000 м    8/0 средняя 
[Ac und]
+23.9 +17.8 69 +40  1015.7  1.1  708  258           
09 19.08.17 210 (ЮЗ) 20000 м    5/0 средняя 
[Ac und]
+29.1 +14.4 41 +38  1014.2  -0.2  708  255           
12 19.08.17 200 (Ю) 20000 м    3/0 средняя 
[Ac und]
+32.1 +14.1 34 +41  1012.7  -0.8  708  252           
15 19.08.17 210 (ЮЗ) 20000 м    3/0 средняя 
[Ac und]
+30.6 +13.2 35 +38  1013.4  0.3  708  254           
21 19.08.17 180 (Ю) 20000 м    ясно 
+25.1 +9.7 38 +27  1015.9  0.7  709  260           
00 20.08.17 040 (СВ) 20000 м    3/0 средняя 
[Ac und]
+22.7 +9.7 44 +25  1017  0.5  709  262           
03 20.08.17 030 (СВ) 20000 м    5/0 средняя 
[Ac und]
+22 +8.6 42 +22  1016.7  -0.5  709  263           
06 20.08.17 230 (ЮЗ) 20000 м    ясно 
+27.4 +11.5 37 +32  1015.6  0.3  709  257           
09 20.08.17 250 (З) 20000 м    4/0 средняя, верхняя 
[Ac und|Ci fib]
+30.9 +13.2 34 +38  1013.9  -0.8  708  254           
12 20.08.17 240 (ЮЗ) 20000 м    3/0 верхняя 
[Ci fib]
+33.6 +15.1 33 +44  1011.4  -1.7  707  251           
15 20.08.17 200 (Ю) 20000 м    ясно 
+30.5 +13.1 35 +38  1011.4  -0.7  706  253           
21 20.08.17 050 (СВ) 20000 м    ясно 
+24.7 +10.3 40 +27  1013.6  -0.5  707  259           
00 21.08.17 040 (СВ) 20000 м    ясно 
+22.1 +10.4 47 +25  1013.6  -0.6  707  261           
03 21.08.17 050 (СВ) 20000 м    3/0 средняя 
[Ac und]
+22.3 +10.5 47 +25  1013.4  -0.2  706  261           
09 21.08.17 250 (З) 20000 м    3/0 средняя 
[Ac und]
+30.7 +13.1 34 +38  1010.1  -1.1  706  253           
12 21.08.17 270 (З) 20000 м    ясно 
+33.7 +15.1 33 +44  1007.7  -1.5  704  250           
15 21.08.17 240 (ЮЗ) 20000 м    5/0 верхняя 
[Ci fib]
+30.8 +14.2 36 +40  1008.2  -0.2  704  252           
21 21.08.17 360 (С) 20000 м    ясно 
+24.9 +11.5 43 +29  1009.8  -0.2  704  258           
00 22.08.17 030 (СВ) 20000 м    ясно 
+23.2 +10.3 44 +26  1010.3  704  260           
03 22.08.17 070 (В) 20000 м    ясно 
+22 +10 46 +24  1010.5  -0.1  704  261           
09 22.08.17 030 (СВ) 20000 м    ясно 
+32.3 +14.6 34 +42  1007.4  -0.7  704  251           
12 22.08.17 230 (ЮЗ) 20000 м    ясно 
+34.6 +16.6 34 +48  1004.3  -2.3  702  248           
15 22.08.17 280 (З) 20000 м    ясно 
+31.8 +13.6 33 +40  1005.6  -0.5  703  251           
Время (UTC), дата Ветер
(°,м/с) 
Видим.   Явления Облачность Т
(°С)
Тd
(°С)
f(%) Тe
(°С)
Pmin
(гПа)
dP
(гПа)
Po
(мм)
O2
(г/м3)
Тmin Tmax R s Состояние
почвы

Для получения пояснительной информации подведите курсор к названию столбца.

ПОГОДА в Шаки - архив

Всё, что Вы хотите узнать о погоде в Шаки - удобно и подробно!

Выберите нужную дату (начиная с 1 января 2015* года) и нажмите кнопку "Найти".
Будут отображены архивные сводки погоды по пункту Шаки, начиная с указанной даты.


Отображать данные в формате CSV (для использования в таблицах Excel)


Внимание! Наш архив погоды предназначен исключительно для личного некоммерческого использования в познавательных целях. Если Вам необходимы официальные справки о состоянии погоды (для производственных, юридических, коммерческих и т.п. целей), обращайтесь в органы Росгидромета.

*Примечание: данная дата относится к архиву по метеостанциям СССР (Россия, СНГ, Балтия).
Архив по метеостанциям Зарубежной Европы и Азии (кроме Китая) хранится 10 дней, по другим регионам земного шара (Китай, Африка, Америка, Австралия, Океания) - 1 день.

Шаки - район местоположения метеостанции


Название, широта, долгота, высота метеостанции:
Шаки 41.2°ш. 47.2°д. 641 м над ур. моря [Азербайджан]

Дополнительная информация

В oтличие oт бoльшинства пoгoдных сайтoв мы публикуем пoдрoбную метеoинфoрмацию в детальнoм прoфессиoнальнoм фoрмате.

Характеристики температуры и влажнoсти вoздуха измеряются на высoте 2 м в тени вдали oт зданий и деревьев.
Скoрoсть ветра измеряется на высoте 10 м (на урoвне рoста челoвека скoрoсть ветра ниже в 1.5-2 раза). Если метеoстанция нахoдится в гoрoде или в лесу, тo скoрoсть ветра занижена на 2-4 м/с пo сравнению с oткрытым местoм. Скoрoсть ветра над акватoриями крупных рек и oзёр, а также на вершинах хoлмoв на 2-5 м/с выше, чем в oбычных услoвиях.
Атмoсфернoе давление в разных тoчках местнoсти мoжет значительнo oтличаться oт давления на метеoстанции, в зависимoсти oт услoвий рельефа (при пoдъёме на 10 м давление пoнижается примернo на 1 мм рт.ст.).